Nasudden, Sweden

9:41 PM CEST on May 25, 2015 (GMT +0200)
Visby | | Change Station
CLOSE
Current Station
Airport
Location: Visby Flygplats,
Elevation: 154 ft
Nearby Weather Stations

Elev 154 ft 57.66 °N, 18.35 °E | Updated 21 minutes ago

Clear
Clear
50 °F
Feels Like 50 °F
N
9
Wind Variable Wind from SSE

Today
High -- | Low -- °F
--% Chance of Precip.
Yesterday
High -- | Low -- °F
Precip. -- in
4:11 AM 9:17 PM
Waxing Crescent, 51% visible
Pressure 29.83 in
Visibility -9999.0 miles
Clouds
Dew Point 41 °F
Humidity 71%
Rainfall 0.00 in
Snow Depth Not available.
UV Not available.
Pollen Not available.
Air Quality Not available.
Flu Activity Not available.
METAR ESSV 251920Z 16008KT CAVOK 10/05 Q1010

More Conditions Fewer Conditions

Pressure 29.83 in
Visibility -9999.0 miles
Clouds
Dew Point 41 °F
Humidity 71%
Rainfall 0.00 in
Snow Depth Not available.
UV Not available.
Pollen Not available.
Air Quality Not available.
Flu Activity Not available.
METAR ESSV 251920Z 16008KT CAVOK 10/05 Q1010

More Conditions Fewer Conditions

10-Day Weather Forecast

Almanac

Astronomy

May. 25, 2015 Rise Set
Actual Time
Civil Twilight
Nautical Twilight
Astronomical Twilight
Moon
Length of Visible Light
Length of Day
Tomorrow will be .
, % of the Moon is Illuminated

Today's Extremes

Country Highs Country Lows

Community

WunderPhotos

Upload Photos

1,824,102 photos uploaded!

WunderBlogs® & News

Nearby

Air Quality

  Air Quality AQ Index Pollutant
Not available.

Snow Depth

Station Depth Elevation

Earthquake Activity

City Distance Mag. Time & Date
Minimum magnitude displayed is 2.5.

Coastal Water Temperatures

Place Temperature

Stations

Nearby Weather Stations

Station Location Temp. Windchill Dew Point Humidity Wind Precip. Elev Updated Type